User: anonymous   Login
Location: Unspecified
(0.0000°N, 0.0000°E)
Time: 05:59:28
(UTC+02:00)
Language:

ATLAS 3B CENTAUR R/B - Orbit

View from above orbital plane
View from above orbital plane
View from above satellite
View from above satellite

Ground track
Ground track

The orbit data is extracted from the following two-line orbital elements,

1 28118U 03057B   16183.73048321  .00063401  00000-0  97864-3 0  9993
2 28118  28.1510 302.7492 3274380 239.1259  84.6690  8.92988197257585
Epoch (UTC): 01 July 2016 17:31:53
Eccentricity: 0.3274380
inclination: 28.1510°
perigee height: 222 km
apogee height: 6649 km
right ascension of ascending node: 302.7492°
argument of perigee: 239.1259°
revolutions per day: 8.92988197
mean anomaly at epoch: 84.6690°
orbit number at epoch: 25758

The dashed part of the orbit path shows where the satellite is in the earth's shadow,  

DLR